This demonstration page uses our WeatherBlox Daily Observations layout. Learn more.

Left ArrowRight Arrow

Hourly Observations for June 23, 2018

Temp ( °F °C ) Dew Point ( °F °C ) Humidity (%) Winds ( mph kmh ) Pressure ( in mb ) Visibility ( mi km ) Precip ( " mm )
12:54 am 00:54 Clear 61 16.1 59 15 93 93 NNW 3 6 29.80 1009 7 11 0.00 0.00
1:54 am 01:54 Clear 62 16.7 60 15.6 93 93 WNW 3 6 29.81 1010 7 11 0.00 0.00
2:54 am 02:54 Clear with Mist and Fog 62 16.7 60 15.6 93 93 W 3 6 29.81 1010 6 10 0.00 0.00
3:54 am 03:54 Clear with Mist and Fog 61 16.1 59 15 93 93 Calm 29.78 1008 6 10 0.00 0.00
4:54 am 04:54 Clear with Mist and Fog 62 16.7 60 15.6 93 93 Calm 29.77 1008 5 8 0.00 0.00
5:54 am 05:54 Cloudy with Mist and Fog 62 16.7 60 15.6 93 93 Calm 29.78 1008 4 6 0.00 0.00
6:54 am 06:54 Cloudy with Light Rain 62 16.7 60 15.6 93 93 SSW 3 6 29.79 1009 3 5 0.00 0.03
7:54 am 07:54 Cloudy with Mist and Fog 63 17.2 61 16.1 93 93 S 3 6 29.80 1009 3 5 0.01 0.25
8:54 am 08:54 Sunny with Mist and Fog 64 17.8 62 16.7 93 93 Calm 29.80 1009 4 6 0.00 0.00
9:54 am 09:54 Partly Cloudy with Mist and Fog 67 19.4 63 17.2 87 87 SSE 7 11 29.80 1009 5 8 0.00 0.00
10:06 am 10:06 Hazy 68 20 63 17.2 84 84 VRB 5 7 29.80 1009 5 8 0.00 0.00
10:54 am 10:54 Sunny 70 21.1 63 17.2 79 79 S 9 15 29.78 1009 9 14 0.00 0.00
11:54 am 11:54 Mostly Sunny 77 25 65 18.3 66 66 SW 7 11 29.77 1008 10 16 0.00 0.00
12:54 pm 12:54 Partly Cloudy 79 26.1 62 16.7 56 56 SSW 7 11 29.76 1008 10 16 0.00 0.00
1:54 pm 13:54 Partly Cloudy 79 26.1 63 17.2 58 58 SSW 8 13 29.75 1007 10 16 0.00 0.00
2:54 pm 14:54 Partly Cloudy 83 28.3 65 18.3 55 55 S 6 9 29.74 1007 10 16 0.00 0.00
3:54 pm 15:54 Mostly Sunny 85 29.4 65 18.3 51 51 S 8 13 29.72 1007 10 16 0.00 0.00
4:54 pm 16:54 Mostly Sunny 87 30.6 62 16.7 43 43 VRB 6 9 29.72 1006 10 16 0.00 0.00
5:54 pm 17:54 Sunny 87 30.6 61 16.1 42 42 SW 8 13 29.70 1006 10 16 0.00 0.00
6:54 pm 18:54 Sunny 85 29.4 62 16.7 46 46 S 6 9 29.69 1005 10 16 0.00 0.00
7:54 pm 19:54 Sunny 83 28.3 64 17.8 53 53 S 5 7 29.71 1006 10 16 0.00 0.00
8:54 pm 20:54 Sunny 77 25 64 17.8 64 64 S 6 9 29.73 1007 10 16 0.00 0.00
9:54 pm 21:54 Clear 76 24.4 65 18.3 69 69 SE 6 9 29.73 1007 10 16 0.00 0.00
10:54 pm 22:54 Clear 77 25 65 18.3 66 66 SE 6 9 29.74 1007 10 16 0.00 0.00
11:54 pm 23:54 Clear 76 24.4 65 18.3 69 69 E 3 6 29.75 1007 10 16 0.00 0.00

Powered by AerisWeather